Location: Nairn
(57.5833°N, 3.8667°W)
Time: 03:53:41
(UTC+00:00)

Altair - Pass Details

Date: 04 December 2020
Orbit: 1501 x 1682 km, 47.2° (Epoch: 17 January)

Event Time Altitude Azimuth Distance (km) Brightness Sun altitude
Rises 20:10:14 0° 230° (SW) 4,737 10.5 -35.2°
Reaches altitude 10° 20:13:36 10° 222° (SW) 3,730 9.8 -35.7°
Enters shadow 20:19:13 32° 192° (SSW) 2,404 8.4 -36.4°
